�������l�o���
Date,Time,MP-1(��Sv/h),MP-2(��Sv/h),MP-3(��Sv/h),MP-4(��Sv/h),MP-5(��Sv/h),MP-6(��Sv/h),MP-7(��Sv/h),MP-8(��Sv/h),����,����(m/s),���J
2020/02/29,00:00,0.688,0.984,0.649,1.206,0.862,0.394,0.692,0.658,�k��,3.8,��
2020/02/29,00:10,0.687,0.983,0.648,1.207,0.864,0.397,0.692,0.660,���k��,4.4,��
2020/02/29,00:20,0.684,0.983,0.648,1.207,0.863,0.396,0.693,0.660,�k��,4.3,��
2020/02/29,00:30,0.684,0.985,0.650,1.208,0.864,0.396,0.692,0.660,�k��,4.0,��
2020/02/29,00:40,0.686,0.983,0.647,1.209,0.863,0.396,0.692,0.659,�k��,3.3,��
2020/02/29,00:50,0.686,0.984,0.648,1.207,0.863,0.396,0.691,0.661,�k��,2.6,��
2020/02/29,01:00,0.686,0.985,0.649,1.208,0.864,0.395,0.692,0.660,�k��,2.8,��
2020/02/29,01:10,0.684,0.983,0.649,1.208,0.862,0.395,0.692,0.659,�k��,3.3,��
2020/02/29,01:20,0.686,0.982,0.648,1.206,0.862,0.397,0.693,0.660,�k��,3.8,��
2020/02/29,01:30,0.685,0.984,0.648,1.208,0.864,0.396,0.691,0.658,�k��,4.6,��
2020/02/29,01:40,0.687,0.986,0.651,1.209,0.864,0.396,0.692,0.659,�k��,4.2,��
2020/02/29,01:50,0.686,0.983,0.652,1.204,0.864,0.395,0.694,0.660,�k��,3.4,��
2020/02/29,02:00,0.686,0.984,0.649,1.208,0.865,0.395,0.693,0.659,�k��,3.5,��
2020/02/29,02:10,0.686,0.984,0.650,1.208,0.864,0.395,0.691,0.658,���k��,2.6,��
2020/02/29,02:20,0.688,0.984,0.649,1.205,0.864,0.396,0.694,0.660,���k��,2.0,��
2020/02/29,02:30,0.688,0.983,0.649,1.210,0.863,0.395,0.693,0.660,���k��,1.9,��
2020/02/29,02:40,0.686,0.982,0.649,1.207,0.864,0.396,0.693,0.660,���k��,1.5,��
2020/02/29,02:50,0.685,0.984,0.649,1.206,0.866,0.395,0.695,0.659,���k��,1.8,��
2020/02/29,03:00,0.687,0.983,0.649,1.208,0.863,0.396,0.692,0.659,�k��,1.4,��
2020/02/29,03:10,0.685,0.983,0.649,1.210,0.866,0.398,0.691,0.659,�k��,0.9,��
2020/02/29,03:20,0.686,0.984,0.650,1.207,0.863,0.397,0.694,0.658,-,CALM,��
2020/02/29,03:30,0.686,0.983,0.649,1.208,0.864,0.395,0.693,0.658,�k��,1.2,��
2020/02/29,03:40,0.687,0.984,0.648,1.207,0.864,0.396,0.693,0.660,�k��,1.9,��
2020/02/29,03:50,0.687,0.985,0.649,1.208,0.864,0.396,0.693,0.661,���k��,2.0,��
2020/02/29,04:00,0.687,0.984,0.649,1.209,0.864,0.396,0.692,0.659,���k��,2.3,��
2020/02/29,04:10,0.685,0.984,0.649,1.209,0.865,0.397,0.691,0.659,���k��,1.5,��
2020/02/29,04:20,0.685,0.984,0.648,1.206,0.862,0.397,0.693,0.660,���k��,1.2,��
2020/02/29,04:30,0.687,0.983,0.650,1.209,0.865,0.395,0.691,0.659,���k��,1.9,��
2020/02/29,04:40,0.687,0.984,0.649,1.209,0.866,0.396,0.693,0.659,�k��,2.6,��
2020/02/29,04:50,0.686,0.984,0.649,1.210,0.865,0.395,0.693,0.661,�k��,2.3,��
2020/02/29,05:00,0.688,0.983,0.648,1.208,0.865,0.395,0.695,0.659,�k��,3.1,��
2020/02/29,05:10,0.685,0.984,0.650,1.208,0.865,0.396,0.692,0.660,�k��,3.4,��
2020/02/29,05:20,0.686,0.984,0.648,1.208,0.865,0.396,0.693,0.658,�k��,3.7,��
2020/02/29,05:30,0.686,0.984,0.649,1.208,0.865,0.398,0.694,0.659,�k��,3.6,��
2020/02/29,05:40,0.686,0.985,0.650,1.206,0.863,0.396,0.694,0.659,�k��,3.2,��
2020/02/29,05:50,0.686,0.984,0.650,1.210,0.865,0.396,0.694,0.659,�k��,2.9,��
2020/02/29,06:00,0.687,0.984,0.651,1.208,0.864,0.396,0.692,0.661,�k��,2.6,��
2020/02/29,06:10,0.686,0.985,0.649,1.208,0.863,0.396,0.693,0.660,�k��,2.5,��
2020/02/29,06:20,0.686,0.984,0.650,1.207,0.863,0.396,0.694,0.660,�k��,2.0,��
2020/02/29,06:30,0.686,0.985,0.650,1.209,0.862,0.396,0.692,0.659,�k��,2.0,��
2020/02/29,06:40,0.686,0.984,0.649,1.208,0.864,0.397,0.693,0.659,�k�k��,3.0,��
2020/02/29,06:50,0.686,0.985,0.649,1.211,0.863,0.394,0.692,0.661,�k��,3.4,��
2020/02/29,07:00,0.686,0.982,0.649,1.209,0.864,0.395,0.693,0.659,�k��,2.8,��
2020/02/29,07:10,0.685,0.983,0.648,1.208,0.865,0.396,0.693,0.661,�k�k��,2.3,��
2020/02/29,07:20,0.687,0.984,0.649,1.208,0.862,0.397,0.692,0.660,�k�k��,2.0,��
2020/02/29,07:30,0.686,0.984,0.651,1.207,0.863,0.396,0.692,0.658,�k��,1.5,��
2020/02/29,07:40,0.686,0.984,0.648,1.209,0.862,0.397,0.692,0.658,�k�k��,1.4,��
2020/02/29,07:50,0.687,0.984,0.651,1.209,0.865,0.396,0.693,0.660,�k�k��,1.1,��
2020/02/29,08:00,0.688,0.985,0.649,1.206,0.863,0.396,0.693,0.661,�k,0.8,��
2020/02/29,08:10,0.686,0.983,0.650,1.210,0.865,0.395,0.695,0.660,-,CALM,��
2020/02/29,08:20,0.687,0.985,0.650,1.207,0.863,0.396,0.694,0.659,-,CALM,��
2020/02/29,08:30,0.688,0.984,0.651,1.209,0.866,0.397,0.694,0.660,-,CALM,��
2020/02/29,08:40,0.687,0.981,0.651,1.209,0.863,0.396,0.694,0.660,-,CALM,��
2020/02/29,08:50,0.688,0.982,0.649,1.207,0.865,0.396,0.694,0.660,�쐼,0.8,��
2020/02/29,09:00,0.688,0.979,0.649,1.209,0.866,0.397,0.694,0.660,�쐼,1.1,��
2020/02/29,09:10,0.687,0.981,0.650,1.211,0.864,0.398,0.693,0.660,�쐼,1.4,��
2020/02/29,09:20,0.690,0.976,0.651,1.209,0.865,0.397,0.694,0.659,��쐼,1.1,��
2020/02/29,09:30,0.688,0.980,0.650,1.206,0.866,0.397,0.693,0.659,��,1.5,�L
2020/02/29,09:40,0.689,0.980,0.651,1.211,0.866,0.396,0.692,0.660,��,1.5,�L
2020/02/29,09:50,0.689,0.980,0.649,1.209,0.866,0.395,0.693,0.660,��쐼,1.2,�L
2020/02/29,10:00,0.687,0.980,0.651,1.209,0.865,0.396,0.693,0.659,��쓌,1.2,�L
2020/02/29,10:10,0.688,0.980,0.650,1.209,0.865,0.396,0.692,0.660,��쓌,1.7,�L
2020/02/29,10:20,0.688,0.979,0.650,1.210,0.866,0.396,0.692,0.660,��,2.3,��
2020/02/29,10:30,0.688,0.982,0.650,1.209,0.864,0.398,0.692,0.661,���쓌,2.0,��
2020/02/29,10:40,0.690,0.980,0.651,1.208,0.866,0.397,0.692,0.661,��쓌,2.0,��
2020/02/29,10:50,0.687,0.982,0.650,1.209,0.868,0.397,0.692,0.662,��쓌,2.0,��
2020/02/29,11:00,0.688,0.982,0.651,1.210,0.866,0.396,0.693,0.661,���쓌,1.8,��
2020/02/29,11:10,0.688,0.982,0.652,1.208,0.867,0.398,0.692,0.660,��쓌,1.8,��
2020/02/29,11:20,0.689,0.984,0.651,1.209,0.868,0.397,0.692,0.661,���쓌,1.7,�L
2020/02/29,11:30,0.688,0.981,0.652,1.210,0.866,0.398,0.691,0.659,�쓌,2.2,�L
2020/02/29,11:40,0.687,0.982,0.650,1.211,0.867,0.397,0.692,0.660,���쓌,1.8,��
2020/02/29,11:50,0.687,0.982,0.651,1.209,0.866,0.397,0.692,0.662,�쓌,1.9,�L
2020/02/29,12:00,0.689,0.985,0.652,1.209,0.867,0.398,0.692,0.660,�쓌,2.3,�L
2020/02/29,12:10,0.689,0.984,0.651,1.210,0.868,0.396,0.691,0.660,�쓌,2.5,�L
2020/02/29,12:20,0.689,0.985,0.652,1.211,0.866,0.398,0.694,0.661,��쓌,2.6,�L
2020/02/29,12:30,0.688,0.985,0.649,1.210,0.868,0.397,0.692,0.662,��쓌,2.5,�L
2020/02/29,12:40,0.689,0.982,0.652,1.209,0.866,0.398,0.694,0.661,��쓌,2.8,�L
2020/02/29,12:50,0.689,0.986,0.653,1.207,0.866,0.397,0.693,0.662,��,3.1,�L
2020/02/29,13:00,0.688,0.985,0.651,1.211,0.869,0.397,0.691,0.659,��쓌,2.2,�L
2020/02/29,13:10,0.690,0.987,0.651,1.211,0.868,0.396,0.695,0.661,��쓌,3.1,�L
2020/02/29,13:20,0.689,0.984,0.650,1.210,0.869,0.397,0.693,0.659,��,2.5,��
2020/02/29,13:30,0.690,0.982,0.652,1.212,0.865,0.397,0.694,0.661,��,2.2,��
2020/02/29,13:40,0.690,0.985,0.651,1.211,0.869,0.398,0.695,0.661,��쓌,1.7,��
2020/02/29,13:50,0.691,0.982,0.652,1.209,0.867,0.398,0.694,0.662,���쓌,2.0,�L
2020/02/29,14:00,0.690,0.985,0.653,1.210,0.866,0.397,0.693,0.661,��쓌,2.2,��
2020/02/29,14:10,0.691,0.985,0.652,1.212,0.867,0.399,0.693,0.660,��쓌,2.3,��
2020/02/29,14:20,0.692,0.985,0.653,1.213,0.868,0.397,0.693,0.662,��쓌,3.1,��
2020/02/29,14:30,0.689,0.986,0.652,1.213,0.869,0.397,0.692,0.661,��쓌,3.4,��
2020/02/29,14:40,0.689,0.986,0.652,1.212,0.867,0.399,0.692,0.663,��쓌,3.5,��
2020/02/29,14:50,0.690,0.985,0.652,1.211,0.870,0.399,0.692,0.662,�쓌,3.8,��
2020/02/29,15:00,0.691,0.989,0.650,1.212,0.869,0.398,0.694,0.661,��쓌,4.5,��
2020/02/29,15:10,0.691,0.989,0.652,1.212,0.867,0.400,0.693,0.661,��쓌,3.4,��
2020/02/29,15:20,0.692,0.990,0.651,1.209,0.867,0.398,0.693,0.661,��쓌,4.3,��
2020/02/29,15:30,0.689,0.989,0.652,1.211,0.869,0.398,0.692,0.662,��쓌,4.6,��
2020/02/29,15:40,0.693,0.989,0.651,1.210,0.869,0.399,0.693,0.662,��쓌,5.0,��
2020/02/29,15:50,0.689,0.991,0.651,1.211,0.869,0.398,0.692,0.661,��쓌,4.5,��
2020/02/29,16:00,0.689,0.990,0.652,1.211,0.869,0.399,0.694,0.660,��쓌,4.7,��
2020/02/29,16:10,0.691,0.991,0.653,1.209,0.869,0.400,0.693,0.660,��쓌,5.2,��
2020/02/29,16:20,0.691,0.992,0.654,1.210,0.867,0.399,0.695,0.661,��쓌,6.1,��
2020/02/29,16:30,0.690,0.992,0.651,1.210,0.868,0.399,0.695,0.660,��쓌,6.4,��
2020/02/29,16:40,0.689,0.992,0.653,1.210,0.867,0.400,0.695,0.659,��쓌,5.7,��
2020/02/29,16:50,0.690,0.992,0.654,1.211,0.866,0.398,0.696,0.660,��쓌,5.7,��
2020/02/29,17:00,0.692,0.993,0.653,1.212,0.868,0.400,0.695,0.661,��쓌,6.0,��
2020/02/29,17:10,0.689,0.994,0.651,1.214,0.868,0.398,0.696,0.662,��쓌,5.2,��
2020/02/29,17:20,0.690,0.992,0.652,1.211,0.868,0.400,0.695,0.661,��쓌,5.2,��
2020/02/29,17:30,0.688,0.993,0.652,1.210,0.868,0.399,0.696,0.660,��,4.8,��
2020/02/29,17:40,0.689,0.994,0.653,1.208,0.869,0.399,0.695,0.661,��쓌,4.9,��
2020/02/29,17:50,0.689,0.993,0.650,1.210,0.868,0.400,0.694,0.662,��,5.0,��
2020/02/29,18:00,0.689,0.991,0.653,1.211,0.867,0.401,0.696,0.660,��,4.8,��
2020/02/29,18:10,0.689,0.994,0.652,1.213,0.867,0.400,0.695,0.662,��,4.6,��
2020/02/29,18:20,0.690,0.992,0.653,1.212,0.868,0.399,0.696,0.661,��,4.1,��
2020/02/29,18:30,0.689,0.991,0.652,1.212,0.868,0.398,0.696,0.661,��,4.5,��
2020/02/29,18:40,0.689,0.994,0.650,1.212,0.869,0.400,0.695,0.662,��,4.3,��
2020/02/29,18:50,0.690,0.992,0.652,1.212,0.867,0.399,0.693,0.660,��,3.6,��
2020/02/29,19:00,0.689,0.991,0.652,1.211,0.867,0.399,0.696,0.660,��쐼,4.0,��
2020/02/29,19:10,0.690,0.991,0.652,1.211,0.867,0.400,0.695,0.661,��쐼,3.6,��
2020/02/29,19:20,0.690,0.990,0.651,1.212,0.868,0.398,0.693,0.660,��쐼,3.4,��
2020/02/29,19:30,0.692,0.991,0.652,1.211,0.869,0.400,0.696,0.661,��쐼,3.0,��
2020/02/29,19:40,0.689,0.990,0.652,1.211,0.868,0.399,0.694,0.661,��쐼,2.5,��
2020/02/29,19:50,0.691,0.991,0.653,1.211,0.867,0.399,0.694,0.660,��쐼,2.2,��
2020/02/29,20:00,0.691,0.990,0.653,1.212,0.869,0.399,0.696,0.659,��,2.0,��
2020/02/29,20:10,0.691,0.991,0.652,1.211,0.869,0.400,0.696,0.661,��쐼,1.9,��
2020/02/29,20:20,0.690,0.990,0.652,1.212,0.868,0.399,0.693,0.661,��쐼,2.0,��
2020/02/29,20:30,0.688,0.989,0.652,1.211,0.868,0.398,0.694,0.660,�쐼,1.5,��
2020/02/29,20:40,0.690,0.991,0.652,1.212,0.869,0.398,0.695,0.663,�쐼,2.0,��
2020/02/29,20:50,0.691,0.990,0.651,1.213,0.867,0.398,0.696,0.662,��쐼,2.3,��
2020/02/29,21:00,0.691,0.990,0.653,1.211,0.868,0.399,0.695,0.661,��쐼,2.2,��
2020/02/29,21:10,0.691,0.989,0.652,1.212,0.868,0.399,0.694,0.660,��,2.0,��
2020/02/29,21:20,0.687,0.990,0.651,1.213,0.868,0.398,0.695,0.661,��,1.1,��
2020/02/29,21:30,0.691,0.989,0.651,1.212,0.868,0.399,0.695,0.661,��쓌,1.7,��
2020/02/29,21:40,0.690,0.989,0.653,1.214,0.868,0.399,0.695,0.661,���쓌,0.6,��
2020/02/29,21:50,0.689,0.991,0.652,1.213,0.869,0.399,0.695,0.661,��,0.6,��
2020/02/29,22:00,0.690,0.990,0.652,1.214,0.867,0.399,0.696,0.662,��쓌,0.6,��
2020/02/29,22:10,0.690,0.991,0.654,1.213,0.869,0.398,0.696,0.660,�k��,0.8,��
2020/02/29,22:20,0.690,0.990,0.650,1.214,0.867,0.398,0.695,0.662,�k�k��,0.9,��
2020/02/29,22:30,0.689,0.991,0.652,1.212,0.867,0.398,0.695,0.659,�k,0.6,��
2020/02/29,22:40,0.689,0.988,0.653,1.212,0.868,0.399,0.695,0.661,-,CALM,��
2020/02/29,22:50,0.690,0.991,0.653,1.214,0.868,0.400,0.695,0.661,��,0.9,��
2020/02/29,23:00,0.690,0.988,0.653,1.213,0.868,0.399,0.694,0.660,��쐼,0.9,��
2020/02/29,23:10,0.690,0.989,0.654,1.213,0.869,0.398,0.696,0.662,���쐼,1.1,��
2020/02/29,23:20,0.690,0.990,0.651,1.211,0.869,0.399,0.694,0.662,���쐼,2.0,��
2020/02/29,23:30,0.691,0.990,0.654,1.214,0.869,0.399,0.696,0.661,�쐼,1.5,��
2020/02/29,23:40,0.690,0.990,0.654,1.211,0.867,0.400,0.696,0.661,�쐼,1.2,��
2020/02/29,23:50,0.691,0.987,0.653,1.213,0.868,0.400,0.696,0.663,�쐼,0.8,��
